Weather History for KTEB - January, 2013

Change the Weather History Date:

Thursday, January 3, 2013

  Actual Average Record
Temperature  
Mean Temperature 28 °F -  
Max Temperature 33 °F 39 °F 62 °F (1997)
Min Temperature 23 °F 26 °F 8 °F (2001)
Degree Days  
Heating Degree Days 37    
Moisture  
Dew Point 14 °F    
Average Humidity 55    
Maximum Humidity 65    
Minimum Humidity 41    
Precipitation  
Precipitation 0.00 in - - ()
Sea Level Pressure  
Sea Level Pressure 30.13 in    
Wind  
Wind Speed 6 mph (WNW)    
Max Wind Speed 12 mph    
Max Gust Speed 16 mph    
Visibility 10 miles    
Events      
Averages and records for this station are not official NWS values.
T = Trace of Precipitation, MM = Missing Value Source: NWS Daily Summary

Daily Weather History Graph

Daily Weather History Graph

Search for Another Location

Airport or City:

Trip Planner

Search our weather history database for the weather conditions in past years. The results will help you decide how hot, cold, wet, or windy it might be!

Date:

Astronomy

Jan. 03, 2013 Rise Set
Actual Time 7:20 AM EST 4:41 PM EST
Civil Twilight 6:50 AM EST 5:11 PM EST
Nautical Twilight 6:15 AM EST 5:46 PM EST
Astronomical Twilight 5:42 AM EST 6:19 PM EST
Moon 11:16 PM EST (1/3) 10:28 AM EST (1/3)
Length of Visible Light 10h 21m
Length of Day
9h 20m
Waning Gibbous, 65% of the Moon is Illuminated
Jan 3
Waning Gibbous
Jan 4
Last Quarter
Jan 11
New
Jan 18
First Quarter
Jan 26
Full

Hourly Weather History & Observations

Time (EST) Temp. Windchill Dew Point Humidity Pressure Visibility Wind Dir Wind Speed Gust Speed Precip Events Conditions
12:51 AM 28.0 °F 24.2 °F 15.1 °F 58% 30.17 in 10.0 mi WNW 3.5 mph - N/A   Clear
1:51 AM 28.0 °F 24.2 °F 17.1 °F 63% 30.18 in 10.0 mi NNW 3.5 mph - N/A   Clear
2:51 AM 28.0 °F 21.7 °F 16.0 °F 61% 30.18 in 10.0 mi NNW 5.8 mph - N/A   Clear
3:51 AM 27.0 °F 23.0 °F 15.1 °F 61% 30.18 in 10.0 mi North 3.5 mph - N/A   Clear
4:51 AM 26.1 °F 20.5 °F 14.0 °F 60% 30.18 in 10.0 mi NNW 4.6 mph - N/A   Clear
5:51 AM 25.0 °F 18.1 °F 14.0 °F 63% 30.18 in 10.0 mi NNW 5.8 mph - N/A   Clear
6:51 AM 24.1 °F 16.0 °F 12.9 °F 62% 30.19 in 10.0 mi NNW 6.9 mph - N/A   Clear
7:51 AM 24.1 °F 16.0 °F 12.0 °F 60% 30.18 in 10.0 mi North 6.9 mph - N/A   Clear
8:51 AM 23.0 °F 17.0 °F 12.9 °F 65% 30.19 in 10.0 mi North 4.6 mph - N/A   Clear
9:51 AM 24.1 °F 19.7 °F 12.0 °F 60% 30.20 in 10.0 mi NE 3.5 mph - N/A   Clear
10:51 AM 26.6 °F - 12.2 °F 55% 30.18 in 10.0 mi Calm Calm - N/A   Clear
11:51 AM 28.9 °F 21.9 °F 12.9 °F 51% 30.14 in 10.0 mi West 6.9 mph - N/A   Clear
12:51 PM 32.0 °F 23.0 °F 12.9 °F 45% 30.11 in 10.0 mi West 11.5 mph 16.1 mph N/A   Clear
1:51 PM 33.1 °F 24.9 °F 12.9 °F 43% 30.09 in 10.0 mi West 10.4 mph - N/A   Clear
2:51 PM 33.8 °F 27.7 °F 12.2 °F 41% 30.07 in 10.0 mi West 6.9 mph - N/A   Clear
3:51 PM 33.1 °F 24.9 °F 14.0 °F 46% 30.07 in 10.0 mi WSW 10.4 mph - N/A   Clear
4:51 PM 30.9 °F 25.2 °F 14.0 °F 50% 30.08 in 10.0 mi WSW 5.8 mph - N/A   Partly Cloudy
5:51 PM 30.9 °F 23.5 °F 14.0 °F 50% 30.09 in 10.0 mi SW 8.1 mph - N/A   Clear
6:51 PM 30.9 °F 23.5 °F 15.1 °F 52% 30.10 in 10.0 mi SW 8.1 mph - N/A   Scattered Clouds
7:51 PM 30.9 °F 22.2 °F 15.1 °F 52% 30.10 in 10.0 mi SW 10.4 mph - N/A   Overcast
8:51 PM 30.9 °F 22.2 °F 15.1 °F 52% 30.09 in 10.0 mi WSW 10.4 mph - N/A   Overcast
9:51 PM 30.9 °F 23.5 °F 16.0 °F 54% 30.09 in 10.0 mi West 8.1 mph - N/A   Overcast
10:51 PM 32.0 °F 25.6 °F 17.1 °F 54% 30.08 in 10.0 mi West 6.9 mph - N/A   Overcast
11:51 PM 32.0 °F 26.4 °F 18.0 °F 56% 30.06 in 10.0 mi SW 5.8 mph - N/A   Overcast